STARLINK-1799 (46699 NORAD) Tracking and Keplerian Element Data

This shows tracking and keplerian element data for the satellite.

Feedback or suggestion? Click here.




ElementValue
Catalog46699
NameSTARLINK-1799
Epoch Orbit175
Epoch Day20.91667824
Epoch Year2021
RAAN13.2982
Inclination53.0522
Eccentricity0.0001641
Argument of Perigee68.8368
Mean Anonmoly86.0898
Mean Motion15.06372233
Decay Rate0.00028383
L11 46699U 20073AF 21020.91667824 .00028383 00000-0 19181-2 0 9990
L22 46699 53.0522 13.2982 0001641 68.8368 86.0898 15.06372233 1753

Live tracking and technical data element details for STARLINK-1799 (NORAD 46699). STARLINK-1799 can be tracked NOW for your location showing map with azimuth and elevation plus other details from your city location.

Track the satellite on the map from your city or location and see movement details for azimuth, elevation, latitude, longitude, range, height, and movement on the map or in text.







IsCatalogInMostPopularTable: catalog: 46699, numindb: 31
Update: records affected: 1



GetName: 46699 STARLINK-1799

Hit Count: updated at: Thu, 21 Jan 2021 09:11:50 GMT